HST,Max TemperatureF,Mean TemperatureF,Min TemperatureF,Max Dew PointF,MeanDew PointF,Min DewpointF,Max Humidity, Mean Humidity, Min Humidity, Max Sea Level PressureIn, Mean Sea Level PressureIn, Min Sea Level PressureIn, Max VisibilityMiles, Mean VisibilityMiles, Min VisibilityMiles, Max Wind SpeedMPH, Mean Wind SpeedMPH, Max Gust SpeedMPH,PrecipitationIn, CloudCover, Events, WindDirDegrees
2013-10-1,86,78,70,70,68,63,84,72,59,30.04,30.00,29.96,10,10,10,15,6,19,0.00,5,Rain,183
2013-10-2,84,77,70,71,69,63,87,76,65,30.02,29.98,29.94,10,10,7,21,6,24,0.03,7,Rain,188
2013-10-3,84,78,71,72,69,67,93,76,58,30.01,29.98,29.94,10,10,6,15,7,19,0.03,7,Rain,194
2013-10-4,84,77,70,70,68,62,100,76,51,30.03,29.99,29.95,10,10,3,18,6,23,0.05,7,Rain,252
2013-10-5,81,75,69,73,70,67,100,85,69,30.04,29.99,29.95,10,8,2,13,5,15,0.36,8,Rain,257
2013-10-6,85,77,69,70,69,64,100,76,51,30.03,30.00,29.95,10,9,4,15,6,17,0.17,6,Rain,216
2013-10-7,84,76,68,69,66,62,93,76,58,30.09,30.03,29.98,10,10,10,13,7,18,T,5,Rain,216
2013-10-8,80,75,69,72,70,63,93,82,71,30.10,30.05,30.01,10,8,1,16,6,20,0.65,8,Rain,240
2013-10-9,84,77,70,72,69,67,97,80,63,30.06,30.02,29.97,10,10,8,13,5,16,0.09,6,Rain,300
2013-10-10,84,77,70,74,70,66,90,76,62,30.02,29.98,29.93,10,8,2,15,6,18,0.01,6,Rain,208
2013-10-11,87,79,70,71,69,63,100,72,43,30.05,29.99,29.94,10,8,2,16,8,22,0.80,6,Rain,180
2013-10-12,86,78,70,72,69,63,93,77,61,30.03,30.00,29.94,10,10,10,14,6,19,0.00,3,,183
2013-10-13,84,78,71,72,69,65,93,79,65,30.02,29.98,29.92,10,9,2,13,7,16,0.09,5,Rain,207
2013-10-14,84,76,68,71,67,61,90,74,58,29.99,29.95,29.90,10,9,2,13,7,15,0.00,6,Rain,208
2013-10-15,85,77,69,71,68,65,93,77,61,30.00,29.96,29.91,10,9,2,13,6,18,0.00,6,Rain,264
2013-10-16,85,77,69,71,68,64,90,77,63,30.01,29.96,29.91,10,10,8,12,7,14,T,5,Rain,224
2013-10-17,84,76,68,73,69,62,90,78,65,30.01,29.96,29.93,10,10,10,13,6,15,0.00,4,,174
2013-10-18,87,78,69,73,69,63,90,74,57,29.96,29.91,29.86,10,10,6,14,7,19,0.00,6,,159
2013-10-19,85,79,72,73,71,65,93,76,59,29.92,29.87,29.83,10,8,4,13,6,16,0.00,6,,348
2013-10-20,85,78,71,73,71,67,93,77,61,29.95,29.89,29.86,10,8,4,12,5,15,0.00,6,,346
2013-10-21,84,77,70,71,69,64,87,74,61,29.99,29.94,29.89,10,10,10,13,6,17,0.00,6,Rain,307
2013-10-22,84,79,73,71,68,64,93,74,55,30.00,29.97,29.92,10,10,10,12,6,15,0.00,6,,311
2013-10-23,84,77,69,72,69,64,93,72,51,30.03,29.98,29.93,10,9,2,10,5,18,0.19,7,Rain,162
2013-10-24,85,78,70,71,69,63,93,77,61,30.01,29.97,29.91,10,10,10,13,6,16,T,5,Rain,244
2013-10-25,83,77,70,73,70,64,90,80,69,30.03,29.98,29.94,10,10,10,12,5,13,0.00,5,,197
2013-10-26,87,79,70,74,70,62,93,81,69,30.05,30.01,29.95,10,10,4,18,8,23,0.00,6,Rain,172
2013-10-27,85,79,72,73,72,69,100,83,65,30.06,30.01,29.94,10,9,2,16,8,20,0.57,5,Rain-Thunderstorm,173
2013-10-28,85,77,69,72,68,65,100,83,65,30.06,30.01,29.95,10,10,9,14,6,18,T,3,Rain,218
2013-10-29,84,76,67,69,66,60,93,78,63,30.09,30.03,29.98,10,10,4,12,7,15,0.37,4,Rain,247
2013-10-30,84,76,67,72,68,57,93,79,65,30.12,30.07,30.01,10,8,2,14,7,18,0.08,6,Rain,241
2013-10-31,85,77,68,72,70,66,97,81,65,30.11,30.07,30.02,10,9,2,15,7,16,0.48,4,Rain,263